EW1898 Weather Reports


time (UTC)temp
C
wind
direction
speed
KPH
gust
KPH
rain 1hr
cm
rain 24hr
cm
rain mn
cm
humidity
%
barometer
mb
20260503191506 10 278 4.8 9.7 0.00 0.18 0.05 46 1005.9
20260503190011 10 346 6.4 14.5 0.00 0.18 0.05 46 1005.8
20260503184504 10 340 6.4 17.7 0.00 0.18 0.05 48 1006.0
20260503183106 10 317 12.9 22.5 0.00 0.18 0.05 48 1005.9
20260503181607 10 338 6.4 17.7 0.00 0.18 0.05 50 1006.2
20260503180055 10 280 4.8 19.3 0.00 0.18 0.05 53 1006.1
20260503174604 10 298 8.0 25.7 0.00 0.18 0.05 53 1006.1
20260503173052 9 343 8.0 19.3 0.00 0.18 0.05 55 1006.1
20260503171550 9 330 6.4 19.3 0.00 0.18 0.05 59 1006.0
20260503081547 5 288 1.6 6.4 0.00 0.41 0.00 93 1008.0
20260503071541 5 291 0.0 4.8 0.00 0.41 0.00 95 1008.4
20260503054536 5 270 0.0 3.2 0.00 0.41 0.00 95 1009.4
20260503053027 6 285 0.0 4.8 0.00 0.41 0.00 95 1009.6
20260503051525 6 292 0.0 6.4 0.00 0.41 0.00 95 1009.7
20260503050027 6 315 1.6 8.0 0.00 0.41 0.00 95 1009.9
20260503044521 6 285 0.0 3.2 0.00 0.41 0.00 95 1010.0
20260503043019 6 298 0.0 3.2 0.00 0.41 0.00 95 1010.1
20260503041517 6 299 3.2 8.0 0.00 0.41 0.00 96 1010.4
20260503040025 6 303 1.6 9.7 0.00 0.41 0.00 97 1010.3
20260503034513 6 293 0.0 1.6 0.00 0.41 0.41 97 1010.4
20260503033012 7 293 0.0 4.8 0.00 0.41 0.41 97 1010.6
20260503031512 6 265 0.0 1.6 0.00 0.41 0.41 97 1010.6
20260503030010 6 265 0.0 0.0 0.00 0.41 0.41 96 1010.4
20260503024511 7 265 0.0 0.0 0.00 0.41 0.41 96 1010.4
20260503023011 7 265 0.0 0.0 0.00 0.41 0.41 96 1010.4
20260503021515 7 265 0.0 0.0 0.00 0.41 0.41 96 1010.7
20260503020010 7 265 0.0 0.0 0.00 0.41 0.41 96 1010.6
20260503014509 7 265 0.0 0.0 0.00 0.41 0.41 95 1010.7
20260503013008 7 265 0.0 0.0 0.00 0.41 0.41 95 1010.7
20260503011522 7 265 0.0 0.0 0.00 0.41 0.41 95 1010.7
20260503010009 8 265 0.0 0.0 0.00 0.41 0.41 94 1010.5
20260503004507 8 265 0.0 0.0 0.00 0.41 0.41 94 1010.6
20260503003007 8 282 0.0 1.6 0.00 0.41 0.41 95 1010.5
20260503001506 8 282 0.0 3.2 0.00 0.41 0.41 96 1010.5
20260503000009 8 286 0.0 3.2 0.00 0.41 0.41 96 1010.4
20260502234516 8 297 0.0 0.0 0.00 0.41 0.41 95 1010.4
20260502233005 9 298 0.0 0.0 0.00 0.41 0.41 95 1010.3
20260502231504 9 297 0.0 0.0 0.00 0.41 0.41 95 1010.0
20260502230003 9 298 0.0 0.0 0.00 0.41 0.41 95 1010.0
20260502224502 9 298 0.0 1.6 0.00 0.41 0.41 95 1009.8
20260502223005 8 298 0.0 0.0 0.03 0.41 0.41 95 1009.6
20260502221501 8 298 0.0 0.0 0.05 0.41 0.41 94 1009.7
20260502220144 8 298 0.0 0.0 0.13 0.41 0.41 94 1009.8
20260502214603 8 298 0.0 0.0 0.13 0.41 0.41 93 1009.9
20260502213106 8 297 0.0 1.6 0.10 0.38 0.38 92 1010.0
20260502211559 9 297 0.0 4.8 0.08 0.36 0.36 89 1010.1
20260502210106 10 298 0.0 1.6 0.00 0.28 0.28 84 1009.9
20260502204609 10 299 1.6 6.4 0.00 0.28 0.28 82 1009.7
20260502203111 10 295 0.0 3.2 0.00 0.28 0.28 81 1009.7
20260502201557 10 290 0.0 3.2 0.00 0.28 0.28 82 1009.7
20260502200055 10 297 0.0 6.4 0.00 0.28 0.28 78 1010.0
20260502194557 11 301 3.2 11.3 0.00 0.28 0.28 77 1009.8
20260502193054 12 302 6.4 16.1 0.00 0.28 0.28 67 1009.8